FW0165 Weather Reports


time (UTC)temp
C
wind
direction
speed
KPH
gust
KPH
rain 1hr
cm
rain 24hr
cm
rain mn
cm
humidity
%
barometer
mb
20260506061507 11 253 0.0 0.0 0.00 0.30 0.10 45 1018.6
20260506044608 11 182 0.0 0.0 0.00 0.46 0.10 46 1017.9
20260506043056 11 182 0.0 0.0 0.00 0.46 0.10 48 1017.8
20260506041606 11 175 0.0 0.0 0.00 0.46 0.10 48 1017.5
20260506040055 11 205 0.0 0.0 0.00 0.46 0.10 49 1017.2
20260506034549 11 190 0.0 0.0 0.00 0.56 0.10 51 1017.0
20260506033052 11 252 0.0 0.0 0.00 0.56 0.10 53 1016.9
20260506031548 11 192 0.0 0.0 0.00 0.56 0.10 52 1016.6
20260506030047 11 207 0.0 0.0 0.00 0.56 0.10 53 1016.4
20260506024546 11 232 0.0 0.0 0.00 0.79 0.10 55 1016.1
20260506023053 12 290 0.0 0.0 0.00 0.79 0.10 55 1016.1
20260506021546 12 162 0.0 0.0 0.00 0.79 0.10 56 1016.0
20260506020114 12 192 0.0 0.0 0.00 0.79 0.10 56 1015.8
20260506014544 12 198 0.0 0.0 0.00 0.99 0.10 59 1015.8
20260506013043 12 194 0.0 0.0 0.00 0.99 0.10 59 1015.6
20260506011547 13 207 0.0 0.0 0.00 0.99 0.10 62 1015.6
20260506010041 13 205 0.0 0.0 0.00 0.99 0.10 62 1015.5
20260506004544 13 257 0.0 0.0 0.00 1.12 0.10 65 1015.6
20260506003040 13 200 0.0 0.0 0.00 1.12 0.10 66 1015.6
20260506001547 13 259 0.0 0.0 0.00 1.12 0.10 68 1015.5
20260506000054 14 205 0.0 0.0 0.00 1.12 0.10 67 1015.5
20260505234542 15 236 0.0 0.0 0.00 1.19 0.10 67 1015.4
20260505233040 15 201 0.0 0.0 0.00 1.19 0.10 68 1015.5
20260505231538 15 263 0.0 0.0 0.00 1.19 0.10 69 1015.6
20260505230044 15 238 0.0 0.0 0.00 1.19 0.10 65 1015.6
20260505224544 15 244 0.0 0.0 0.00 1.35 0.10 68 1015.7
20260505223039 15 244 0.0 0.0 0.00 1.35 0.10 69 1015.8
20260505221544 16 193 0.0 0.0 0.00 1.35 0.10 65 1016.0
20260505220030 15 246 0.0 0.0 0.00 1.35 0.10 59 1016.1
20260505214528 14 188 0.0 0.0 0.00 1.40 0.10 53 1016.3
20260505213028 14 213 0.0 0.0 0.00 1.40 0.10 52 1016.5
20260505211530 14 200 0.0 0.0 0.00 1.40 0.10 44 1016.6
20260505210019 13 258 0.0 0.0 0.00 1.40 0.10 17 1016.6
20260505204517 13 244 0.0 0.0 0.00 1.40 0.10 17 1016.7
20260505203017 13 269 0.0 0.0 0.00 1.40 0.10 22 1016.6
20260505201512 12 182 0.0 0.0 0.00 1.40 0.10 25 1016.7
20260505200012 12 167 0.0 0.0 0.00 1.40 0.10 26 1016.7
20260505194510 12 190 0.0 0.0 0.00 1.40 0.10 26 1016.7
20260505193010 12 242 0.0 0.0 0.00 1.40 0.10 27 1016.8
20260505191512 12 85 0.0 0.0 0.00 1.40 0.10 27 1016.7
20260505190005 12 85 0.0 0.0 0.00 1.40 0.10 28 1016.6
20260505184503 11 85 0.0 0.0 0.00 1.40 0.10 28 1016.6
20260505183002 11 117 0.0 0.0 0.00 1.40 0.10 28 1016.6
20260505181641 11 117 0.0 0.0 0.00 1.40 0.10 28 1016.6
20260505180105 11 121 0.0 0.0 0.00 1.40 0.10 29 1016.5
20260505174554 10 216 0.0 0.0 0.00 1.40 0.10 30 1016.5
20260505173053 10 216 0.0 0.0 0.00 1.40 0.10 29 1016.3
20260505171558 10 216 0.0 0.0 0.00 1.40 0.10 30 1016.1
20260505170048 9 216 0.0 0.0 0.00 1.40 0.10 31 1016.2
20260505164548 9 216 0.0 0.0 0.00 1.40 0.10 30 1016.2
20260505163047 9 216 0.0 0.0 0.00 1.40 0.10 31 1016.1
20260505161547 9 216 0.0 0.0 0.00 1.40 0.10 30 1015.9
20260505153046 8 234 0.0 0.0 0.00 1.40 0.10 31 1015.5
20260505151537 8 234 0.0 0.0 0.00 1.40 0.10 31 1015.4
20260505124531 8 203 0.0 0.0 0.00 1.40 0.10 31 1014.6
20260505123045 8 257 0.0 0.0 0.00 1.40 0.10 31 1014.4
20260505121530 8 257 0.0 0.0 0.00 1.40 0.10 30 1014.5
20260505120037 8 257 0.0 0.0 0.00 1.40 0.10 30 1014.4
20260505114531 8 234 0.0 0.0 0.00 1.40 0.10 30 1014.5
20260505113029 8 234 0.0 0.0 0.00 1.40 0.10 30 1014.5
20260505111534 8 261 0.0 0.0 0.00 1.40 0.10 30 1014.5
20260505101525 8 258 0.0 0.0 0.00 1.40 0.10 30 1014.6
20260505100024 8 240 0.0 0.0 0.00 1.40 0.10 29 1014.5
20260505094522 8 198 0.0 0.0 0.00 1.40 0.10 29 1015.0
20260505093022 8 193 0.0 0.0 0.00 1.40 0.10 29 1014.6
20260505091520 8 286 0.0 0.0 0.03 1.40 0.10 29 1014.6
20260505090021 8 225 0.0 0.0 0.03 1.40 0.10 29 1014.3
20260505084515 8 242 0.0 0.0 0.03 1.40 0.10 28 1014.8
20260505083014 8 215 0.0 0.0 0.03 1.40 0.10 28 1015.1
20260505081519 8 199 0.0 0.0 0.03 1.37 0.08 28 1015.1
20260505080016 8 163 0.0 0.0 0.08 1.37 0.08 28 1015.2
20260505074511 8 212 0.0 0.0 0.10 1.37 0.08 28 1015.3
20260505073011 8 250 0.0 0.0 0.15 1.37 0.08 28 1015.4
20260505071509 8 165 0.0 0.0 0.18 1.35 0.05 28 1015.3